When you browse on this site, cookies collect data to enhance your experience and personalize the content and advertising you see.
Visit our Privacy Policy to learn more. By continuing to use the site, you agree to this use of cookies and data.
  • en France
  • Liste des pays
  • À 7 jours
  • Température de l'eau
  • Carte satellitaire
  • Carte météo
  • Widgets météo
  • user-avatar
    Se connecter

    Météo par heure à Stara Zagora

    Ce jour, 23 Mars, Samedi

    Heure Température Précipitation Vent Pression Humidité
    00:00 +10°C° 0 mm 1 m/s 748 mmHg 64%
    01:00 +9°C° 0 mm 1 m/s 748 mmHg 65%
    02:00 +9°C° 0 mm 1 m/s 748 mmHg 63%
    03:00 +9°C° 0 mm 1 m/s 748 mmHg 63%
    04:00 +9°C° 0 mm 1 m/s 748 mmHg 64%
    05:00 +8°C° 0 mm 1 m/s 748 mmHg 64%
    06:00 +9°C° 0 mm 1 m/s 748 mmHg 62%
    07:00 +10°C° 0 mm 1 m/s 748 mmHg 61%
    08:00 +11°C° 0 mm 1 m/s 748 mmHg 56%
    09:00 +13°C° 0 mm 1 m/s 748 mmHg 53%
    10:00 +15°C° 0 mm 1 m/s 748 mmHg 50%
    11:00 +16°C° 0 mm 1 m/s 747 mmHg 47%
    12:00 +18°C° 0 mm 1 m/s 747 mmHg 45%
    13:00 +18°C° 0 mm 1 m/s 747 mmHg 44%
    14:00 +19°C° 0 mm 1 m/s 746 mmHg 42%
    15:00 +17°C° 0 mm 2 m/s 746 mmHg 46%
    16:00 +17°C° 0 mm 3 m/s 746 mmHg 49%
    17:00 +16°C° 0 mm 3 m/s 746 mmHg 53%
    18:00 +13°C° 0 mm 4 m/s 746 mmHg 56%
    19:00 +12°C° 0 mm 4 m/s 746 mmHg 59%
    20:00 +10°C° 0 mm 4 m/s 746 mmHg 63%
    21:00 +10°C° 0 mm 3 m/s 747 mmHg 56%
    22:00 +9°C° 0 mm 3 m/s 747 mmHg 50%
    23:00 +9°C° 0 mm 2 m/s 748 mmHg 44%

    Demain, 24 Mars, Dimanche

    Heure Température Précipitation Vent Pression Humidité
    00:00 +10°C° 0 mm 1 m/s 748 mmHg 43%
    01:00 +10°C° 0 mm 1 m/s 748 mmHg 42%
    02:00 +9°C° 0 mm 0 m/s 748 mmHg 41%
    03:00 +8°C° 0 mm 0 m/s 748 mmHg 43%
    04:00 +8°C° 0 mm 0 m/s 747 mmHg 44%
    05:00 +8°C° 0 mm 1 m/s 747 mmHg 46%
    06:00 +8°C° 0 mm 1 m/s 747 mmHg 46%
    07:00 +9°C° 0 mm 1 m/s 748 mmHg 46%
    08:00 +9°C° 0 mm 1 m/s 748 mmHg 46%
    09:00 +11°C° 0 mm 1 m/s 747 mmHg 43%
    10:00 +13°C° 0 mm 1 m/s 747 mmHg 39%
    11:00 +14°C° 0 mm 1 m/s 747 mmHg 35%
    12:00 +15°C° 0 mm 2 m/s 747 mmHg 32%
    13:00 +16°C° 0 mm 2 m/s 746 mmHg 29%
    14:00 +17°C° 0 mm 2 m/s 746 mmHg 26%
    15:00 +17°C° 0 mm 2 m/s 745 mmHg 28%
    16:00 +17°C° 0 mm 2 m/s 745 mmHg 29%
    17:00 +17°C° 0 mm 2 m/s 744 mmHg 31%
    18:00 +15°C° 0 mm 2 m/s 745 mmHg 36%
    19:00 +13°C° 0 mm 1 m/s 745 mmHg 41%
    20:00 +11°C° 0 mm 1 m/s 745 mmHg 46%
    21:00 +10°C° 0 mm 1 m/s 745 mmHg 48%
    22:00 +8°C° 0 mm 0 m/s 745 mmHg 49%
    23:00 +8°C° 0 mm 0 m/s 745 mmHg 51%

    Après-demain, 25 Mars, Lundi

    Heure Température Précipitation Vent Pression Humidité
    00:00 +7°C° 0 mm 0 m/s 744 mmHg 52%
    01:00 +7°C° 0 mm 0 m/s 744 mmHg 54%
    02:00 +6°C° 0 mm 0 m/s 744 mmHg 55%
    03:00 +6°C° 0 mm 0 m/s 744 mmHg 56%
    04:00 +5°C° 0 mm 0 m/s 743 mmHg 57%
    05:00 +5°C° 0 mm 0 m/s 743 mmHg 59%
    06:00 +6°C° 0 mm 0 m/s 743 mmHg 57%
    07:00 +7°C° 0 mm 0 m/s 742 mmHg 55%
    08:00 +8°C° 0 mm 0 m/s 742 mmHg 54%
    09:00 +11°C° 0 mm 1 m/s 742 mmHg 49%
    10:00 +13°C° 0 mm 1 m/s 742 mmHg 44%
    11:00 +15°C° 0 mm 2 m/s 741 mmHg 39%
    12:00 +16°C° 0 mm 2 m/s 741 mmHg 37%
    13:00 +17°C° 0 mm 2 m/s 740 mmHg 34%
    14:00 +18°C° 0 mm 2 m/s 740 mmHg 32%
    15:00 +18°C° 0 mm 2 m/s 739 mmHg 33%
    16:00 +18°C° 0 mm 2 m/s 739 mmHg 35%
    17:00 +18°C° 0 mm 3 m/s 738 mmHg 36%
    18:00 +16°C° 0 mm 2 m/s 738 mmHg 43%
    19:00 +14°C° 0 mm 2 m/s 738 mmHg 50%
    20:00 +12°C° 0 mm 2 m/s 738 mmHg 57%
    21:00 +10°C° 0 mm 2 m/s 738 mmHg 58%
    22:00 +10°C° 0 mm 1 m/s 738 mmHg 60%
    23:00 +10°C° 0 mm 1 m/s 738 mmHg 62%

    26 Mars, Mardi

    Heure Température Précipitation Vent Pression Humidité
    00:00 +9°C° 0 mm 1 m/s 738 mmHg 63%
    01:00 +9°C° 0 mm 1 m/s 738 mmHg 64%
    02:00 +9°C° 0 mm 1 m/s 738 mmHg 65%
    03:00 +8°C° 0 mm 1 m/s 738 mmHg 67%
    04:00 +7°C° 0 mm 0 m/s 738 mmHg 68%
    05:00 +7°C° 0 mm 0 m/s 738 mmHg 70%
    06:00 +8°C° 0 mm 0 m/s 738 mmHg 66%
    07:00 +10°C° 0 mm 1 m/s 738 mmHg 63%
    08:00 +11°C° 0 mm 1 m/s 739 mmHg 60%
    09:00 +13°C° 0 mm 2 m/s 739 mmHg 57%
    10:00 +14°C° 0 mm 3 m/s 739 mmHg 53%
    11:00 +16°C° 0 mm 3 m/s 740 mmHg 50%
    12:00 +17°C° 0 mm 4 m/s 740 mmHg 49%
    13:00 +16°C° 0 mm 5 m/s 740 mmHg 49%
    14:00 +16°C° 0 mm 6 m/s 740 mmHg 48%
    15:00 +15°C° 0 mm 6 m/s 740 mmHg 49%
    16:00 +13°C° 0 mm 6 m/s 741 mmHg 51%
    17:00 +11°C° 0 mm 6 m/s 741 mmHg 52%
    18:00 +10°C° 0.1 mm 5 m/s 742 mmHg 57%
    19:00 +11°C° 0.1 mm 4 m/s 743 mmHg 62%
    20:00 +10°C° 0.1 mm 2 m/s 743 mmHg 67%
    21:00 +9°C° 0.1 mm 2 m/s 744 mmHg 71%
    22:00 +9°C° 0.1 mm 2 m/s 744 mmHg 74%
    23:00 +8°C° 0.1 mm 2 m/s 744 mmHg 78%

    27 Mars, Mercredi

    Heure Température Précipitation Vent Pression Humidité
    00:00 +8°C° 0 mm 2 m/s 745 mmHg 78%
    01:00 +8°C° 0 mm 2 m/s 745 mmHg 78%
    02:00 +9°C° 0 mm 1 m/s 745 mmHg 78%
    03:00 +9°C° 0.1 mm 1 m/s 746 mmHg 79%
    04:00 +8°C° 0.1 mm 1 m/s 746 mmHg 79%
    05:00 +8°C° 0.1 mm 1 m/s 746 mmHg 79%
    06:00 +8°C° 0.1 mm 1 m/s 746 mmHg 76%
    07:00 +8°C° 0.1 mm 1 m/s 747 mmHg 73%
    08:00 +8°C° 0.1 mm 2 m/s 747 mmHg 70%
    09:00 +8°C° 0.1 mm 2 m/s 747 mmHg 65%
    10:00 +9°C° 0.1 mm 2 m/s 748 mmHg 61%
    11:00 +9°C° 0.1 mm 2 m/s 748 mmHg 57%
    12:00 +10°C° 0.1 mm 2 m/s 748 mmHg 55%
    13:00 +12°C° 0.1 mm 2 m/s 748 mmHg 53%
    14:00 +12°C° 0.1 mm 2 m/s 748 mmHg 52%
    15:00 +12°C° 0.1 mm 2 m/s 748 mmHg 53%
    16:00 +12°C° 0.1 mm 2 m/s 748 mmHg 54%
    17:00 +10°C° 0.1 mm 2 m/s 748 mmHg 55%
    18:00 +10°C° 0.2 mm 2 m/s 748 mmHg 58%
    19:00 +9°C° 0.2 mm 2 m/s 748 mmHg 60%
    20:00 +8°C° 0.2 mm 3 m/s 749 mmHg 63%
    21:00 +7°C° 0.1 mm 2 m/s 749 mmHg 64%
    22:00 +7°C° 0.1 mm 2 m/s 749 mmHg 65%
    23:00 +6°C° 0.1 mm 2 m/s 749 mmHg 66%

    28 Mars, Jeudi

    Heure Température Précipitation Vent Pression Humidité
    00:00 +6°C° 0.1 mm 2 m/s 749 mmHg 66%
    01:00 +6°C° 0.1 mm 2 m/s 750 mmHg 67%
    02:00 +5°C° 0.1 mm 2 m/s 750 mmHg 67%
    03:00 +5°C° 0 mm 2 m/s 750 mmHg 67%
    04:00 +6°C° 0 mm 1 m/s 750 mmHg 68%
    05:00 +6°C° 0 mm 1 m/s 750 mmHg 68%
    06:00 +5°C° 0 mm 2 m/s 751 mmHg 65%
    07:00 +6°C° 0 mm 2 m/s 751 mmHg 61%
    08:00 +6°C° 0 mm 2 m/s 751 mmHg 57%
    09:00 +7°C° 0 mm 3 m/s 752 mmHg 52%
    10:00 +8°C° 0 mm 3 m/s 752 mmHg 46%
    11:00 +9°C° 0 mm 3 m/s 752 mmHg 41%
    12:00 +10°C° 0 mm 4 m/s 752 mmHg 39%
    13:00 +10°C° 0 mm 4 m/s 751 mmHg 38%
    14:00 +10°C° 0 mm 5 m/s 751 mmHg 36%
    15:00 +9°C° 0 mm 5 m/s 751 mmHg 36%
    16:00 +9°C° 0 mm 5 m/s 751 mmHg 36%
    17:00 +9°C° 0 mm 5 m/s 751 mmHg 37%
    18:00 +7°C° 0 mm 4 m/s 751 mmHg 42%
    19:00 +5°C° 0 mm 3 m/s 752 mmHg 48%
    20:00 +4°C° 0 mm 2 m/s 752 mmHg 54%
    21:00 +3°C° 0 mm 2 m/s 752 mmHg 56%
    22:00 +3°C° 0 mm 2 m/s 752 mmHg 58%
    23:00 +3°C° 0 mm 1 m/s 752 mmHg 60%
    Voir plus